When you browse on this site, cookies collect data to enhance your experience and personalize the content and advertising you see.
Visit our Privacy Policy to learn more. By continuing to use the site, you agree to this use of cookies and data.

Hourly Weather La Rioja

Today, 9 August, Sunday

Time Temperature Precipitation Wind Pressure Humidity
00:00 +12°C° 0 mm 0 mps 716 mmHg 66%
01:00 +12°C° 0 mm 0 mps 716 mmHg 69%
02:00 +11°C° 0 mm 0 mps 715 mmHg 72%
03:00 +11°C° 0 mm 0 mps 715 mmHg 72%
04:00 +12°C° 0 mm 1 mps 714 mmHg 72%
05:00 +11°C° 0 mm 1 mps 714 mmHg 72%
06:00 +13°C° 0 mm 1 mps 714 mmHg 66%
07:00 +14°C° 0 mm 1 mps 714 mmHg 59%
08:00 +15°C° 0 mm 1 mps 714 mmHg 53%
09:00 +18°C° 0 mm 1 mps 714 mmHg 46%
10:00 +21°C° 0 mm 1 mps 714 mmHg 39%
11:00 +23°C° 0 mm 1 mps 713 mmHg 33%
12:00 +24°C° 0 mm 1 mps 712 mmHg 30%
13:00 +26°C° 0 mm 2 mps 712 mmHg 27%
14:00 +27°C° 0 mm 2 mps 711 mmHg 25%
15:00 +27°C° 0 mm 1 mps 710 mmHg 25%
16:00 +27°C° 0 mm 1 mps 710 mmHg 25%
17:00 +27°C° 0 mm 1 mps 709 mmHg 25%
18:00 +25°C° 0 mm 1 mps 709 mmHg 30%
19:00 +22°C° 0 mm 1 mps 709 mmHg 35%
20:00 +19°C° 0 mm 1 mps 709 mmHg 40%
21:00 +17°C° 0 mm 0 mps 709 mmHg 41%
22:00 +17°C° 0 mm 0 mps 709 mmHg 43%
23:00 +16°C° 0 mm 0 mps 709 mmHg 44%

Tomorrow, 10 August, Monday

Time Temperature Precipitation Wind Pressure Humidity
00:00 +16°C° 0 mm 0 mps 709 mmHg 48%
01:00 +18°C° 0 mm 1 mps 708 mmHg 51%
02:00 +16°C° 0 mm 1 mps 708 mmHg 55%
03:00 +16°C° 0 mm 1 mps 708 mmHg 56%
04:00 +15°C° 0 mm 1 mps 708 mmHg 58%
05:00 +15°C° 0 mm 1 mps 708 mmHg 59%
06:00 +16°C° 0 mm 1 mps 709 mmHg 53%
07:00 +17°C° 0 mm 2 mps 710 mmHg 47%
08:00 +18°C° 0 mm 2 mps 711 mmHg 41%
09:00 +20°C° 0 mm 2 mps 711 mmHg 37%
10:00 +22°C° 0 mm 3 mps 711 mmHg 32%
11:00 +25°C° 0 mm 3 mps 711 mmHg 28%
12:00 +26°C° 0 mm 3 mps 710 mmHg 27%
13:00 +27°C° 0 mm 3 mps 710 mmHg 27%
14:00 +27°C° 0 mm 2 mps 709 mmHg 26%
15:00 +27°C° 0 mm 2 mps 709 mmHg 27%
16:00 +27°C° 0 mm 3 mps 709 mmHg 29%
17:00 +27°C° 0 mm 3 mps 709 mmHg 30%
18:00 +25°C° 0 mm 3 mps 710 mmHg 35%
19:00 +24°C° 0 mm 3 mps 712 mmHg 40%
20:00 +21°C° 0 mm 3 mps 713 mmHg 45%
21:00 +20°C° 0 mm 4 mps 714 mmHg 40%
22:00 +19°C° 0 mm 4 mps 716 mmHg 36%
23:00 +17°C° 0 mm 5 mps 717 mmHg 32%

Day after tomorrow, 11 August, Tuesday

Time Temperature Precipitation Wind Pressure Humidity
00:00 +15°C° 0 mm 4 mps 718 mmHg 36%
01:00 +13°C° 0 mm 4 mps 719 mmHg 40%
02:00 +11°C° 0 mm 3 mps 720 mmHg 43%
03:00 +10°C° 0 mm 3 mps 719 mmHg 45%
04:00 +9°C° 0 mm 2 mps 719 mmHg 47%
05:00 +9°C° 0 mm 1 mps 719 mmHg 48%
06:00 +8°C° 0 mm 2 mps 720 mmHg 45%
07:00 +8°C° 0 mm 2 mps 720 mmHg 43%
08:00 +9°C° 0 mm 2 mps 720 mmHg 40%
09:00 +9°C° 0 mm 2 mps 720 mmHg 37%
10:00 +10°C° 0 mm 2 mps 719 mmHg 33%
11:00 +11°C° 0 mm 3 mps 719 mmHg 30%
12:00 +11°C° 0 mm 3 mps 718 mmHg 29%
13:00 +13°C° 0 mm 2 mps 716 mmHg 28%
14:00 +14°C° 0 mm 2 mps 715 mmHg 26%
15:00 +14°C° 0 mm 2 mps 715 mmHg 27%
16:00 +14°C° 0 mm 2 mps 714 mmHg 27%
17:00 +14°C° 0 mm 2 mps 713 mmHg 28%
18:00 +13°C° 0 mm 2 mps 714 mmHg 31%
19:00 +11°C° 0 mm 1 mps 714 mmHg 34%
20:00 +10°C° 0 mm 1 mps 714 mmHg 37%
21:00 +9°C° 0 mm 1 mps 714 mmHg 38%
22:00 +9°C° 0 mm 1 mps 714 mmHg 39%
23:00 +8°C° 0 mm 1 mps 714 mmHg 40%

12 August, Wednesday

Time Temperature Precipitation Wind Pressure Humidity
00:00 +8°C° 0 mm 1 mps 713 mmHg 40%
01:00 +8°C° 0 mm 1 mps 713 mmHg 41%
02:00 +8°C° 0 mm 1 mps 712 mmHg 42%
03:00 +7°C° 0 mm 1 mps 712 mmHg 44%
04:00 +6°C° 0 mm 1 mps 712 mmHg 45%
05:00 +6°C° 0 mm 1 mps 711 mmHg 47%
06:00 +7°C° 0 mm 1 mps 712 mmHg 44%
07:00 +6°C° 0 mm 2 mps 712 mmHg 42%
08:00 +7°C° 0 mm 2 mps 713 mmHg 39%
09:00 +9°C° 0 mm 2 mps 712 mmHg 35%
10:00 +12°C° 0 mm 2 mps 712 mmHg 30%
11:00 +13°C° 0 mm 2 mps 712 mmHg 26%
12:00 +15°C° 0 mm 2 mps 712 mmHg 24%
13:00 +16°C° 0 mm 2 mps 711 mmHg 23%
14:00 +17°C° 0 mm 2 mps 710 mmHg 21%
15:00 +17°C° 0 mm 2 mps 710 mmHg 22%
16:00 +16°C° 0 mm 2 mps 710 mmHg 22%
17:00 +16°C° 0 mm 2 mps 709 mmHg 22%
18:00 +14°C° 0 mm 2 mps 710 mmHg 26%
19:00 +13°C° 0 mm 1 mps 710 mmHg 29%
20:00 +11°C° 0 mm 1 mps 711 mmHg 32%
21:00 +10°C° 0 mm 1 mps 711 mmHg 34%
22:00 +9°C° 0 mm 1 mps 711 mmHg 35%
23:00 +9°C° 0 mm 1 mps 711 mmHg 37%

13 August, Thursday

Time Temperature Precipitation Wind Pressure Humidity
00:00 +8°C° 0 mm 1 mps 711 mmHg 37%
01:00 +8°C° 0 mm 1 mps 711 mmHg 37%
02:00 +8°C° 0 mm 1 mps 710 mmHg 38%
03:00 +8°C° 0 mm 1 mps 710 mmHg 41%
04:00 +7°C° 0 mm 1 mps 710 mmHg 44%
05:00 +7°C° 0 mm 1 mps 710 mmHg 47%
06:00 +8°C° 0 mm 1 mps 710 mmHg 44%
07:00 +9°C° 0 mm 1 mps 710 mmHg 41%
08:00 +10°C° 0 mm 1 mps 711 mmHg 37%
09:00 +12°C° 0 mm 2 mps 711 mmHg 33%
10:00 +14°C° 0 mm 2 mps 711 mmHg 28%
11:00 +16°C° 0 mm 2 mps 711 mmHg 23%
12:00 +17°C° 0 mm 2 mps 710 mmHg 22%
13:00 +18°C° 0 mm 2 mps 709 mmHg 20%
14:00 +19°C° 0 mm 2 mps 708 mmHg 19%
15:00 +19°C° 0 mm 2 mps 708 mmHg 19%
16:00 +19°C° 0 mm 2 mps 708 mmHg 19%
17:00 +19°C° 0 mm 2 mps 708 mmHg 19%
18:00 +17°C° 0 mm 2 mps 708 mmHg 22%
19:00 +15°C° 0 mm 2 mps 708 mmHg 26%
20:00 +13°C° 0 mm 1 mps 708 mmHg 29%
21:00 +12°C° 0 mm 2 mps 708 mmHg 31%
22:00 +12°C° 0 mm 2 mps 708 mmHg 34%
23:00 +10°C° 0 mm 2 mps 708 mmHg 36%

14 August, Friday

Time Temperature Precipitation Wind Pressure Humidity
00:00 +10°C° 0 mm 2 mps 708 mmHg 38%
01:00 +9°C° 0 mm 2 mps 708 mmHg 41%
02:00 +9°C° 0 mm 2 mps 707 mmHg 44%
03:00 +8°C° 0 mm 2 mps 707 mmHg 47%
04:00 +7°C° 0 mm 2 mps 707 mmHg 50%
05:00 +7°C° 0 mm 2 mps 706 mmHg 53%
06:00 +8°C° 0 mm 2 mps 707 mmHg 48%
07:00 +9°C° 0 mm 2 mps 707 mmHg 43%
08:00 +10°C° 0 mm 2 mps 708 mmHg 37%
09:00 +14°C° 0 mm 2 mps 708 mmHg 33%
10:00 +16°C° 0 mm 2 mps 709 mmHg 28%
11:00 +19°C° 0 mm 3 mps 709 mmHg 23%
12:00 +20°C° 0 mm 3 mps 709 mmHg 22%
13:00 +21°C° 0 mm 4 mps 709 mmHg 21%
14:00 +22°C° 0 mm 4 mps 709 mmHg 20%
15:00 +21°C° 0 mm 4 mps 709 mmHg 21%
16:00 +21°C° 0 mm 3 mps 709 mmHg 21%
17:00 +20°C° 0 mm 3 mps 709 mmHg 22%
18:00 +18°C° 0 mm 2 mps 710 mmHg 28%
19:00 +16°C° 0 mm 1 mps 710 mmHg 33%
20:00 +13°C° 0 mm 1 mps 711 mmHg 38%
21:00 +13°C° 0 mm 1 mps 711 mmHg 41%
22:00 +12°C° 0 mm 1 mps 711 mmHg 44%
23:00 +11°C° 0 mm 1 mps 711 mmHg 47%
Show more